Regional Weather Roundup
Issued by NWS

Home | Current Version | Previous Version | Text Only | Print | Product List | Glossary On
Versions: 1 2 3 4 5 6 7 8 9 10 11 12 13 14 15 16 17 18 19 20 21 22 23 24 25 26 27 28 29 30 31 32 33 34 35 36 37 38 39 40 41 42 43 44 45 46 47 48 49 50
000
ASUS43 KTOP 270859
RWRKS

WEATHER ROUNDUP FOR KANSAS
NATIONAL WEATHER SERVICE GOODLAND KS
400 AM CDT WED MAY 27 2015

NOTE:  "FAIR" INDICATES FEW OR NO CLOUDS BELOW 12,000 FEET WITH NO
SIGNIFICANT WEATHER AND/OR OBSTRUCTIONS TO VISIBILITY.

KSZ001>006-013>018-027>032-041>047-271000-
NORTHWEST KANSAS

CITY           SKY/WX    TMP DP  RH WIND       PRES   REMARKS
GOODLAND       CLOUDY    55  51  86 S13       30.08S
HAYS           PTCLDY    52  45  76 CALM      30.04S
HILL CITY      CLEAR     50  47  89 CALM      30.05R
RUSSELL        PTCLDY    54  51  90 S5        30.03S
$$

KSZ061>065-074>080-084>089-271000-
SOUTHWEST KANSAS

CITY           SKY/WX    TMP DP  RH WIND       PRES   REMARKS
DODGE CITY     MOCLDY    57  54  89 CALM      30.05R
ELKHART          N/A     60  50  69 NW1         N/A
GARDEN CITY    MOCLDY    57  55  93 E6        30.05R
GREAT BEND     PTCLDY    57  52  82 SE5       30.03S
LIBERAL        CLOUDY    63  54  72 CALM      30.07R
$$

KSZ066>073-081>083-090>101-271000-
SOUTHEAST KANSAS

CITY           SKY/WX    TMP DP  RH WIND       PRES   REMARKS
CHANUTE        PTCLDY    63  62  97 N9        30.01R
COFFEYVILLE    PTCLDY    62  62 100 SE6       30.01R
HUTCHINSON     CLEAR     59  54  83 NE3       30.02S
NEWTON         CLEAR     59  54  82 E3        30.04S
PARSONS        PTCLDY    62  62 100 CALM      30.01R
WICHITA INTL   MOCLDY    64  61  90 CALM      30.01R
WICHITA JABRA  CLEAR     62  60  93 NW5       30.02R
WINFIELD       CLEAR     60  57  89 N3        30.01R
$$

KSZ007>012-019>026-033>040-048>060-102>105-271000-
NORTHEAST KANSAS

CITY           SKY/WX    TMP DP  RH WIND       PRES   REMARKS
CONCORDIA      CLEAR     55  51  86 W7        30.02F
EMPORIA        PTCLDY    60  57  89 W5        30.02R
LAWRENCE       MOCLDY    58  56  93 CALM      30.00R
MANHATTAN      CLEAR     54  54 100 SW3       30.02R
OLATHE IND     CLEAR     61  58  90 SW5       30.01R
OLATHE EXE     CLEAR     62  59  90 W3        30.00R
SALINA         PTCLDY    60  55  83 N6        30.03R
TOPEKA BILLARD PTCLDY    61  57  87 W3        30.00R
TOPEKA FORBES  CLEAR     59  55  87 W6        30.00R
$$



USA.gov is the U.S. government's official web portal to all federal, state and local government web resources and services.